Wind_Speed
15 15 15 15 15 15 15 16 16 15 15 15 15 16 16 15 15 14 14 13 13 14 13 13 14 13 13 12 12 12 12 12 12 13 13 13 13 13 13 13 13 13 12
14 15 16 16 16 16 15 15 15 16 15 15 16 15 15 15 14 14 13 13 13 13 13 14 14 14 13 12 12 12 12 12 12 12 13 13 13 13 13 13 12 12 12
15 15 16 16 16 16 16 15 15 16 16 16 16 16 15 15 14 13 13 13 12 12 13 14 14 14 13 12 12 12 12 12 12 12 12 12 12 12 12 13 13 13 12
15 16 16 16 16 16 16 16 16 16 16 16 16 16 15 15 15 14 13 13 13 13 14 14 13 13 13 13 12 12 12 12 11 12 12 12 12 13 13 13 13 13 13
15 15 15 16 16 16 16 16 16 16 16 16 16 16 15 15 14 14 13 13 13 14 14 13 13 13 13 13 13 12 12 12 12 12 12 13 13 13 13 13 13 13 13
16 16 16 16 16 16 17 17 16 16 16 16 16 16 15 14 14 14 14 14 14 14 13 13 13 13 13 12 12 13 13 13 13 13 13 14 14 13 13 13 14 14 14
16 16 17 17 17 17 17 16 16 17 16 16 16 16 15 15 14 14 14 14 15 15 14 14 14 13 13 13 13 13 13 13 13 13 14 15 15 13 14 14 14 14 13
18 17 17 17 17 17 17 17 17 17 17 16 16 16 16 15 14 14 15 15 16 16 15 15 15 14 14 13 13 14 14 14 14 15 15 15 15 15 15 15 14 13 14
19 18 18 17 17 18 18 17 18 18 18 17 17 17 16 15 15 16 16 16 16 16 16 15 15 15 15 15 14 14 15 15 15 16 15 15 15 15 14 14 14 14 14
19 20 19 19 19 19 19 19 19 18 18 18 18 17 17 17 17 17 17 18 17 17 17 16 16 16 16 16 15 16 16 16 16 16 16 16 16 15 14 14 14 15 15
21 21 20 19 19 19 19 19 19 19 19 18 18 19 18 18 18 18 18 18 18 18 18 18 18 18 17 17 16 16 17 17 17 17 17 17 16 16 15 15 15 15 16
21 21 22 21 20 19 19 19 19 19 19 19 20 20 19 19 19 19 19 19 18 18 19 19 19 18 18 17 18 18 18 18 17 17 18 17 17 17 16 16 16 16 16
22 22 22 21 20 20 20 19 19 19 19 19 20 20 20 20 20 19 19 20 19 19 19 19 19 18 18 18 19 18 18 18 18 18 18 18 18 18 18 17 17 17 17
22 22 21 21 21 20 20 20 20 19 19 19 19 20 20 19 19 19 19 19 20 19 20 20 19 19 19 19 19 19 18 19 19 20 19 20 19 19 19 18 17 17 17
23 22 21 21 21 21 20 20 20 20 19 19 19 19 19 19 19 20 20 20 20 20 20 20 20 21 20 20 20 20 20 19 19 20 20 20 20 19 19 18 18 18 17
23 23 22 22 22 22 22 21 21 21 20 20 20 19 19 20 20 20 20 21 21 21 21 21 21 21 21 20 21 21 21 20 20 20 20 20 20 20 19 18 18 18 18
24 24 24 23 22 23 23 22 22 22 21 20 20 20 20 20 21 21 21 21 21 22 22 22 21 21 21 21 22 22 22 21 21 20 19 19 19 20 19 19 20 19 19
24 24 25 24 23 23 23 23 23 23 22 21 21 21 21 21 22 21 22 22 22 22 22 22 22 22 22 23 23 22 22 22 21 21 21 20 20 20 20 20 20 19 19
24 24 24 25 24 24 24 23 23 23 22 22 22 23 23 23 22 22 22 22 22 22 23 23 22 22 22 22 22 23 22 21 21 21 21 21 21 21 21 21 20 20 20
24 24 25 25 25 24 24 24 23 23 23 23 23 23 23 23 23 23 24 24 23 23 22 22 22 22 22 23 23 23 22 22 22 22 22 22 21 21 21 21 20 20 20
25 25 24 25 25 24 24 24 24 24 24 24 24 24 24 24 24 24 24 24 24 24 23 23 23 24 24 24 24 24 23 23 23 23 23 23 22 22 22 21 21 21 21
25 25 24 24 24 23 24 24 24 24 24 24 24 24 24 24 24 25 25 25 24 24 24 25 25 25 25 25 25 25 25 24 24 24 24 23 23 23 23 22 22 22 22
26 26 25 25 23 22 23 23 24 24 24 23 24 24 25 25 25 25 25 24 25 25 25 26 26 26 26 26 26 26 26 26 25 25 24 24 24 24 24 23 23 23 23
27 26 25 24 23 23 23 23 24 24 23 23 23 24 24 25 25 25 25 25 26 26 26 26 26 27 27 27 28 27 27 27 26 26 25 25 25 25 25 24 24 24 24
27 26 26 25 24 23 23 23 24 24 24 24 24 25 25 26 25 25 25 25 26 26 26 26 26 26 27 27 27 28 28 27 27 27 26 26 26 26 26 26 26 26 26
27 27 27 26 25 24 24 24 24 25 25 25 26 26 26 26 25 25 24 25 25 25 25 26 26 26 26 27 27 28 28 28 28 27 27 27 27 27 27 27 26 26 26
Wind_Direction
280 278 277 276 276 275 275 277 279 279 279 279 281 283 285 285 283 281 279 279 282 284 285 286 289 292 291 291 290 287 287 288 289 289 288 288 289 289 289 289 288 284 285
282 279 278 278 278 278 278 279 281 280 280 280 279 283 284 282 281 278 276 279 281 286 287 287 288 289 288 289 289 286 286 288 290 290 289 289 290 290 289 287 286 285 285
282 279 279 278 278 279 280 281 281 281 282 283 283 284 284 282 281 279 278 279 281 286 290 286 287 287 285 284 286 283 282 285 289 291 292 294 293 292 290 288 288 286 285
284 278 278 277 277 278 280 281 281 282 284 283 283 283 282 279 278 278 278 279 282 285 288 292 293 291 287 284 285 283 283 287 289 292 291 293 295 293 290 289 288 287 285
287 282 280 279 279 280 281 283 282 282 283 282 282 282 283 279 277 276 277 278 282 285 286 288 292 292 288 286 284 284 284 286 289 290 291 292 294 293 292 292 292 290 287
288 286 285 282 282 282 283 284 283 284 284 283 283 280 281 278 277 275 277 279 282 284 285 285 288 288 288 288 286 286 283 286 288 289 290 290 294 294 291 292 293 293 291
288 287 287 284 282 282 283 282 282 283 284 283 284 280 280 279 274 274 276 279 281 281 282 283 285 286 285 286 283 286 286 287 288 289 291 290 291 292 293 293 293 292 292
288 286 285 285 282 282 282 281 281 282 283 283 283 282 281 277 276 275 277 280 282 284 282 283 283 285 284 283 283 285 289 288 287 287 290 292 291 292 293 292 292 292 291
287 286 285 285 283 282 280 279 281 281 281 282 279 278 279 277 277 277 278 281 283 284 284 284 283 283 283 283 283 285 286 287 288 287 287 290 292 292 292 288 288 290 291
289 286 284 284 282 282 281 279 279 279 279 279 278 278 277 277 277 278 278 280 281 283 285 283 282 283 282 281 284 285 283 285 289 288 288 290 289 290 290 289 288 288 290
288 284 282 281 280 281 281 280 279 278 277 277 277 278 276 277 278 278 278 279 280 281 281 280 280 282 283 282 283 286 284 285 286 287 288 287 286 286 288 289 290 290 291
288 286 281 282 280 281 280 279 280 279 277 276 276 277 275 275 275 276 278 278 279 279 278 278 279 280 281 282 283 284 283 284 286 287 286 287 286 286 286 288 290 290 291
286 285 283 281 280 280 279 277 279 279 278 277 277 276 275 274 274 275 277 278 277 276 276 277 278 278 279 281 282 281 282 284 286 285 284 284 286 286 285 286 287 288 289
284 283 281 279 279 279 278 276 278 278 278 278 277 275 273 273 273 275 278 278 277 275 276 276 277 277 278 281 280 280 283 285 285 283 283 282 283 284 285 285 284 285 285
284 283 280 278 277 278 279 278 276 277 277 276 276 276 273 272 274 276 277 279 277 276 278 277 279 278 278 280 279 281 284 284 284 284 283 282 283 282 283 283 282 282 283
283 281 279 277 277 277 278 279 278 276 277 274 272 273 274 275 276 277 277 277 277 278 279 279 279 279 279 279 278 281 282 282 283 284 283 282 283 281 281 281 281 281 281
281 279 278 276 276 276 275 275 276 274 274 272 270 271 274 276 276 277 278 278 277 277 278 279 278 278 279 278 278 280 281 282 282 282 282 282 283 282 281 279 280 280 280
281 279 278 278 276 276 276 275 274 273 270 269 270 272 273 274 276 277 278 278 278 277 278 279 279 278 278 279 280 280 279 279 281 280 280 280 280 280 278 279 279 279 279
283 280 278 278 276 275 274 273 273 272 270 270 271 272 273 274 275 275 277 278 277 278 278 279 279 279 279 279 279 280 280 279 279 280 281 280 279 279 278 278 277 278 278
286 282 280 280 276 274 273 272 271 271 271 271 271 272 274 274 274 275 276 278 277 277 278 279 280 279 278 278 279 279 279 278 278 280 281 280 279 279 279 277 278 279 280
288 284 283 282 278 274 272 271 272 271 271 272 272 273 275 275 274 274 274 276 276 277 277 277 279 280 279 278 278 278 277 277 278 279 279 279 278 279 278 277 277 278 279
288 285 282 281 279 275 272 271 271 271 271 272 272 272 275 276 276 275 275 275 276 277 278 278 278 280 280 279 278 278 276 276 276 278 279 278 276 276 277 277 277 278 278
288 285 282 282 280 275 273 272 273 272 271 272 272 273 275 276 276 276 275 275 276 277 278 278 279 279 278 277 277 277 275 274 276 276 277 277 276 275 276 276 276 277 277
287 284 283 281 279 276 274 272 272 272 273 273 274 276 277 278 278 277 275 275 275 277 278 278 278 278 278 277 276 276 275 274 276 276 276 276 275 276 275 275 275 275 276
284 283 281 278 278 278 275 273 272 271 272 274 276 277 279 279 278 278 277 276 276 277 278 278 279 279 278 277 276 276 275 274 274 273 273 273 274 274 275 275 275 275 276
282 281 279 278 277 276 276 274 273 273 273 275 277 278 279 278 277 277 277 277 278 278 277 277 278 279 278 277 277 276 276 274 272 272 273 273 274 274 273 273 273 274 275
Height
5858 5858 5858 5858 5858 5858 5858 5858 5858 5858 5857 5857 5857 5857 5857 5856 5856 5856 5856 5856 5855 5855 5855 5855 5854 5854 5853 5853 5852 5852 5852 5852 5851 5851 5850 5850 5849 5849 5848 5848 5847 5847 5847
5855 5855 5855 5855 5855 5855 5855 5855 5854 5854 5854 5854 5854 5853 5853 5853 5853 5852 5852 5852 5852 5852 5852 5852 5851 5851 5850 5850 5850 5849 5849 5849 5849 5848 5848 5847 5847 5846 5846 5845 5845 5844 5844
5852 5852 5851 5851 5851 5851 5851 5851 5851 5851 5850 5850 5850 5850 5850 5849 5849 5849 5849 5849 5849 5849 5849 5848 5848 5848 5848 5847 5847 5847 5847 5846 5846 5845 5845 5845 5844 5843 5843 5842 5842 5842 5841
5849 5848 5848 5848 5848 5848 5848 5848 5848 5847 5847 5846 5846 5846 5846 5846 5846 5846 5846 5846 5847 5846 5846 5845 5845 5845 5845 5845 5844 5844 5844 5844 5843 5843 5842 5842 5841 5841 5840 5839 5839 5838 5838
5846 5845 5844 5844 5844 5844 5844 5844 5844 5843 5843 5843 5843 5843 5842 5843 5843 5843 5843 5843 5843 5843 5842 5842 5842 5842 5842 5842 5841 5841 5841 5841 5840 5840 5839 5839 5838 5838 5837 5836 5836 5835 5835
5842 5841 5841 5841 5841 5840 5840 5840 5840 5840 5839 5839 5839 5839 5839 5839 5839 5839 5840 5840 5840 5840 5839 5839 5839 5839 5839 5838 5838 5838 5838 5837 5837 5837 5836 5836 5835 5834 5834 5833 5833 5832 5831
5838 5838 5837 5837 5837 5837 5836 5836 5836 5836 5835 5835 5835 5835 5835 5835 5836 5836 5836 5836 5837 5837 5836 5836 5836 5836 5835 5835 5835 5835 5835 5834 5834 5833 5833 5833 5832 5831 5830 5830 5829 5828 5828
5834 5834 5834 5833 5833 5833 5832 5832 5832 5832 5832 5832 5831 5831 5831 5832 5832 5832 5832 5833 5833 5833 5833 5833 5832 5832 5832 5832 5832 5832 5831 5831 5831 5830 5830 5829 5828 5828 5827 5826 5826 5825 5825
5831 5829 5829 5829 5829 5829 5828 5828 5828 5828 5828 5827 5828 5828 5828 5828 5828 5828 5828 5829 5829 5829 5829 5829 5829 5828 5828 5828 5828 5827 5827 5827 5827 5826 5826 5825 5825 5824 5823 5822 5822 5822 5821
5827 5825 5824 5824 5824 5824 5824 5823 5823 5823 5823 5823 5823 5823 5824 5824 5824 5824 5825 5825 5825 5825 5825 5825 5825 5824 5824 5824 5824 5823 5823 5823 5823 5822 5822 5821 5821 5820 5819 5818 5818 5817 5817
5823 5821 5819 5819 5819 5819 5819 5819 5819 5819 5819 5819 5819 5819 5819 5819 5820 5820 5820 5820 5820 5820 5820 5820 5820 5820 5820 5819 5819 5819 5819 5819 5818 5818 5817 5817 5816 5816 5815 5814 5814 5813 5812
5817 5816 5815 5814 5814 5814 5814 5814 5814 5814 5814 5814 5814 5814 5815 5815 5815 5815 5815 5815 5815 5815 5815 5815 5815 5815 5815 5815 5815 5815 5814 5814 5813 5813 5813 5812 5812 5811 5811 5810 5810 5809 5808
5813 5812 5810 5810 5810 5809 5809 5809 5809 5809 5809 5809 5809 5810 5810 5810 5810 5811 5811 5810 5810 5810 5810 5810 5810 5810 5810 5810 5810 5810 5809 5809 5808 5808 5808 5807 5807 5806 5806 5805 5805 5804 5803
5808 5806 5805 5805 5805 5804 5804 5804 5804 5804 5804 5804 5804 5804 5805 5805 5805 5805 5805 5805 5805 5805 5805 5805 5805 5805 5805 5805 5805 5804 5804 5804 5803 5803 5803 5802 5802 5801 5801 5800 5800 5799 5799
5802 5801 5799 5799 5799 5799 5798 5798 5798 5799 5799 5799 5799 5799 5799 5800 5800 5800 5800 5800 5800 5800 5800 5800 5800 5800 5800 5800 5799 5799 5799 5799 5798 5798 5798 5797 5796 5796 5795 5795 5794 5794 5793
5797 5795 5794 5793 5793 5793 5793 5793 5793 5793 5793 5793 5794 5794 5794 5794 5795 5795 5795 5795 5795 5795 5795 5795 5795 5794 5794 5794 5794 5794 5793 5793 5793 5793 5792 5792 5791 5790 5790 5789 5789 5789 5788
5791 5789 5788 5787 5787 5787 5787 5787 5787 5787 5787 5788 5788 5788 5788 5789 5789 5789 5789 5788 5789 5789 5789 5789 5788 5788 5788 5788 5788 5788 5787 5787 5787 5787 5786 5786 5785 5785 5784 5784 5784 5783 5783
5784 5783 5782 5781 5781 5781 5781 5780 5781 5781 5781 5782 5782 5782 5782 5783 5783 5783 5783 5783 5783 5783 5783 5783 5783 5783 5782 5782 5782 5781 5781 5781 5781 5781 5780 5780 5780 5779 5778 5778 5778 5777 5777
5777 5776 5775 5775 5774 5774 5774 5774 5774 5774 5775 5775 5776 5776 5776 5776 5776 5777 5777 5777 5777 5777 5776 5776 5776 5776 5776 5776 5775 5775 5775 5775 5775 5774 5774 5774 5773 5773 5772 5772 5772 5771 5771
5770 5769 5768 5767 5767 5766 5766 5767 5767 5768 5768 5769 5769 5769 5769 5769 5770 5770 5770 5770 5770 5770 5770 5770 5770 5770 5770 5770 5769 5769 5769 5768 5768 5768 5767 5767 5767 5766 5766 5766 5766 5765 5765
5764 5762 5761 5760 5759 5759 5759 5759 5760 5761 5761 5762 5762 5762 5762 5763 5763 5763 5763 5763 5763 5763 5763 5763 5763 5763 5763 5763 5762 5762 5762 5762 5761 5761 5761 5760 5760 5760 5759 5759 5759 5759 5759
5757 5755 5754 5752 5752 5751 5752 5752 5753 5753 5754 5754 5755 5755 5755 5755 5755 5756 5756 5756 5756 5756 5756 5756 5756 5756 5755 5755 5754 5754 5754 5754 5754 5754 5753 5753 5753 5753 5752 5752 5752 5752 5752
5750 5748 5747 5745 5744 5744 5745 5745 5746 5746 5747 5747 5748 5748 5748 5748 5748 5748 5748 5748 5748 5748 5748 5748 5748 5748 5747 5747 5747 5746 5746 5746 5746 5746 5746 5745 5745 5745 5745 5745 5745 5745 5744
5743 5742 5740 5739 5738 5738 5738 5738 5739 5739 5740 5740 5741 5741 5741 5741 5741 5740 5740 5740 5740 5740 5740 5740 5739 5739 5738 5738 5738 5737 5737 5737 5737 5737 5737 5737 5737 5737 5737 5737 5737 5737 5736
5736 5735 5733 5732 5732 5731 5731 5731 5732 5732 5732 5733 5733 5733 5733 5733 5733 5732 5732 5732 5732 5732 5732 5731 5730 5730 5730 5729 5728 5728 5728 5728 5729 5729 5729 5729 5729 5729 5729 5729 5729 5728 5728
5729 5728 5726 5726 5725 5724 5724 5725 5725 5724 5725 5725 5725 5725 5725 5725 5724 5724 5724 5724 5724 5723 5723 5722 5722 5721 5721 5720 5719 5719 5719 5719 5719 5719 5720 5720 5720 5720 5720 5720 5720 5720 5719